Zurück zum Katalog

GEESAT 4-02

AktivWissenschaftLEO
NORAD 65120·PAYLOAD·🇨🇳 China

Gestartet Aug 8, 2025 von Yellow Sea Launch Area

Loading…

Nächste Überflüge (nächste 24 Stunden)

TLE

AktuellSource: Space-Track

Epoche: Sep 14, 2026, 21:43 UTC

1 65120U 25170B   26257.90502549  .00001193  00000-0  16789-3 0  9993
2 65120  49.9851 118.0671 0009686  73.2083 286.9917 14.84266028 59780

Verfolge GEESAT 4-02 in Echtzeit mit AllMySat

Download on the App Store